OPS 4682 DEB, 38449

Orbit data source: Space-Track

OPS 4682 DEB, 38449 is space debris in LEO originally from a launch on Sat, 03 Apr 1965 UTC launched from the Air Force Western Test Range (AFWTR). Debris objects in space refer to the collection of defunct objects orbiting the Earth. Examples of debris include non-operational satellites, rocket bodies, and fragments generated from explosions, collisions, or faulty payload assembly.

Loading next visibility...
Identifier
38449, 1965-027FE
Orbit
LEO
Country
Flag of USUS
Related business
Manufacturer
Unknown
Mission
Spacecraft
Bus & Motor
Unknown
Mass
Unknown
Launch date (UTC)
1965-04-03 (61 years ago)
Launch vehicle
Unknown
Launch site
Air Force Western Test Range (AFWTR)
Object type
Payload
Rocket body
Debris
Shape & HBR
Unknown shape, 0.1 m
Radar Cross Section
Small (<0.1 m²)

Expand to show TLE details & history
Last TLE update: 15 hours ago

TLE from 15 hours ago
0 OPS 4682 DEB
1 38449U 65027FE  26119.14180718  .00000381  00000-0  13287-2 0  9992
2 38449  90.2481   9.8983 0030438 300.7571  59.0552 12.95257077581287
Epoch: 2026-04-29T03:24Z
TLE epoch observation values (Epoch: 2026-04-29T03:24:12.140Z)
Latitude
-0.00001°
Longitude
101.7407°
Altitude
1,271.666 km
Speed
7.225 km/s
True Right ascension
00h 39m 35s
True Declination
0° 00' 00"
Sunlit
Object was in daylight at epoch
Visualization orbit readout
Latitude
Unknown
Longitude
Unknown
Altitude
Unknown
Speed
Unknown
Apparent Right ascension
Unknown
Apparent Declination
Unknown
Sunlit
N/A
Visualization observer readout
Local Sidereal Time
01:44:57
Azimuth
Unknown
Elevation
Unknown
Doppler factor
Unknown
Orbital elements
Apogee altitude
1,301.164 km
Perigee altitude
1,254.557 km
Semi-major axis
7,655.997 km
Eccentricity
0.00304
Inclination
90.2481°
RAAN
9.8983°
Arg. of periapsis
300.7571°
True anomaly
59.35493°
Mean anomaly
59.0552°
Eccentric anomaly
59.20501°
Mean motion
3.23997 °/min
Orbital period
111.11 mins
BSTAR
0.0013287
Loading maneuver chart data...
Computing Atmospheric mass density...
Loading historical data...
Loading historical data...
Loading historical data...
Loading historical data...
Loading historical data...
Loading historical data...
Loading historical data...

Documentation

Showing up to 5 results
|